Location: Beaurevoir
(49.9971°N, 3.3085°E)
Time: 02:24:01
(UTC+00:00)

CRYOSAT 2 - Pass Details

Date: 23 May 2024
Orbit: 719 x 719 km, 92.0° (Epoch: 21 June)

Event Time Altitude Azimuth Distance (km) Brightness Sun altitude
Rises 01:58:54 0° 5° (N) 3,144 8.9 -13.3°
Reaches altitude 10° 02:01:12 10° 6° (N) 2,219 8.0 -13.1°
Maximum altitude 02:06:07 82° 94° (E) 734 4.4 -12.6°
Enters shadow 02:10:37 12° 183° (S) 2,049 6.2 -12.2°
